Location: Unspecified
(58.3020°N, 0.0000°E)
Time: 00:40:23
(UTC+00:00)

SAUDISAT 4 - Visible Passes

Search period start: 04 April 2026 00:00
Search period end: 14 April 2026 00:00
Orbit: 600 x 662 km, 97.7° (Epoch: 29 March)

Date Brightness Start Highest point End Pass type
(mag) Time Alt. Az. Time Alt. Az. Time Alt. Az.
4 Apr ? 00:08:12 10° ENE 00:09:38 11° NE 00:11:03 10° NNE visible
4 Apr ? 01:42:00 18° SE 01:44:55 41° ENE 01:49:09 10° N visible
4 Apr ? 03:19:22 24° SW 03:21:21 37° W 03:25:32 10° NNW visible
5 Apr ? 00:27:32 10° E 00:29:59 15° NE 00:32:29 10° NNE visible
5 Apr ? 02:02:43 21° SE 02:05:31 59° ENE 02:09:58 10° N visible
5 Apr ? 03:40:05 18° SW 03:42:13 26° W 03:46:01 10° NW visible
6 Apr ? 00:47:16 10° E 00:50:25 19° NE 00:53:36 10° N visible
6 Apr ? 02:23:25 23° SSE 02:26:11 84° ENE 02:30:42 10° NNW visible
6 Apr ? 04:00:48 13° WSW 04:03:09 19° W 04:06:20 10° NW visible
7 Apr ? 01:07:14 10° ESE 01:10:53 25° NE 01:14:35 10° N visible
7 Apr ? 02:44:08 23° S 02:46:53 69° WSW 02:51:24 10° NNW visible
7 Apr ? 04:22:01 10° WSW 04:24:08 13° W 04:26:17 10° NW visible
8 Apr ? 01:27:28 10° SE 01:31:23 34° ENE 01:35:28 10° N visible
8 Apr ? 03:04:50 20° SSW 03:07:39 47° W 03:12:02 10° NNW visible
9 Apr ? 00:14:37 10° ENE 00:16:34 13° NE 00:18:31 10° NNE visible
9 Apr ? 01:48:11 13° SE 01:51:57 47° ENE 01:56:18 10° N visible
9 Apr ? 03:25:33 16° SSW 03:28:28 33° W 03:32:35 10° NNW visible
10 Apr ? 00:34:09 10° E 00:36:57 16° NE 00:39:46 10° N visible
10 Apr ? 02:08:53 15° SSE 02:12:34 67° ENE 02:17:05 10° NNW visible
10 Apr ? 03:46:16 12° SW 03:49:21 23° W 03:53:01 10° NW visible
11 Apr ? 00:53:59 10° ESE 00:57:22 21° NE 01:00:48 10° N visible
11 Apr ? 02:29:36 16° SSE 02:33:14 86° WSW 02:37:48 10° NNW visible
11 Apr ? 04:07:24 10° SW 04:10:17 17° W 04:13:13 10° NW visible
12 Apr ? 01:14:02 10° ESE 01:17:51 28° ENE 01:21:44 10° N visible
12 Apr ? 02:50:19 15° S 02:53:57 60° WSW 02:58:28 10° NNW visible
13 Apr ? 00:01:59 10° NE 00:03:08 11° NE 00:04:17 10° NNE visible
13 Apr ? 01:34:13 10° SE 01:38:22 38° ENE 01:42:36 10° N visible
13 Apr ? 03:11:01 13° SSW 03:14:43 42° W 03:19:04 10° NNW visible
